Location: Berlise
(49.6641°N, 4.1077°E)
Time: 19:57:51
(UTC+00:00)

Envisat - Pass Details

Date: 27 January 2021
Orbit: 764 x 766 km, 98.1° (Epoch: 27 February)

Event Time Altitude Azimuth Distance (km) Brightness Sun altitude
Rises 06:37:33 0° 7° (N) 3,246 6.1 -7.5°
Reaches altitude 10° 06:40:03 10° 358° (N) 2,315 5.3 -7.1°
Maximum altitude 06:44:34 33° 296° (WNW) 1,264 3.6 -6.4°
Drops below altitude 10° 06:49:04 10° 233° (SW) 2,300 5.2 -5.8°
Sets 06:51:33 0° 224° (SW) 3,221 6.0 -5.4°
